Location: Bamba-Tennd�
(14.6851°N, 3.0631°W)
Time: 11:36:46
(UTC+00:00)

Daily predictions for brighter satellites

Satellite Brightness Start Highest point End
(mag) Time Altitude Azimuth Time Altitude Azimuth Time Altitude Azimuth
ATLAS 2AS CENTAUR R/B 3.7 17:54:40 10° S 18:01:09 33° ESE 18:07:58 10° NE
Cosmos 1633 Rocket 3.1 17:56:55 10° N 18:01:18 66° E 18:05:41 10° SSE
Cosmos 2034 Rocket 4.2 17:57:05 10° N 18:03:17 54° E 18:09:27 10° SSE
Sich 1 3.9 17:59:19 10° NNW 18:03:38 57° W 18:07:58 10° S
Cosmos 2228 Rocket 3.2 18:00:17 10° S 18:04:37 55° E 18:08:58 10° NNE
Cosmos 1515 Rocket 3.7 18:00:30 10° S 18:04:54 79° W 18:09:17 10° N
COSMOS 2455 2.9 18:04:57 10° SSW 18:10:55 72° ESE 18:16:54 10° NNE
Delta 168 4.4 18:09:17 10° NNW 18:10:55 13° N 18:12:37 10° NE
NOSS 2-2 (E) 3.3 18:08:32 10° SSW 18:12:32 77° WNW 18:16:08 10° NNE
NATO 3D Rocket 3.9 18:09:54 10° WNW 18:14:41 52° NNE 18:20:33 11° E
Tsikada Rocket 4.3 18:08:57 10° S 18:15:15 75° W 18:21:38 10° N
Cosmos 1666 Rocket 4.5 18:14:04 10° NNW 18:18:15 52° W 18:22:26 10° S
Cosmos 1933 Rocket 4.2 18:15:27 10° NNE 18:19:24 34° E 18:23:24 10° SSE
Cosmos 1606 3.2 18:18:58 10° SSW 18:22:42 62° W 18:26:25 10° N
CORIOLIS 4.5 18:17:32 10° S 18:22:54 73° WSW 18:28:18 10° NNW
COSMO-SKYMED 1 3.5 18:18:57 10° N 18:23:09 51° WNW 18:27:21 10° SSW
Cosmos 1371 Rocket 4.3 18:19:41 10° N 18:24:35 43° ENE 18:29:28 10° SSE
Intercosmos 24 4.4 18:20:40 10° N 18:26:28 84° W 18:30:33 10° S
ASTRO E2 4.1 18:25:42 10° W 18:29:14 30° NNW 18:32:10 13° NNE
NOAA 12 4.1 18:23:55 10° SSE 18:29:15 88° WSW 18:34:35 10° NNW
YAOGAN 1 3.4 18:26:03 10° SE 18:29:40 26° ENE 18:33:16 10° NNE
CZ-4 R/B 1.9 18:26:28 10° SE 18:30:20 37° ENE 18:34:08 10° N
Meteor 1-26 Rocket 4.4 18:24:35 10° S 18:30:34 90° W 18:36:33 10° N
Cosmos 2237 4.5 18:27:26 10° S 18:32:53 47° ESE 18:38:01 12° NNE
GPS 2-15 Rocket1 3.1 18:28:18 10° WNW 18:33:06 87° SSW 18:37:00 16° ESE
Cosmos 1048 Rocket 3.9 18:30:51 10° S 18:36:04 81° ESE 18:41:23 10° NNE
GOES 2 Rocket 3.6 18:30:19 10° WSW 18:36:47 86° SSE 18:40:04 22° ENE
Cosmos 2360 Rocket 2.3 18:31:31 10° S 18:37:01 57° ESE 18:42:21 11° NNE
SL-16 R/B 3.6 18:39:24 10° SW 18:44:37 38° WNW 18:49:51 10° N
COSMOS 2428 4.3 18:41:27 10° SE 18:43:52 15° ESE 18:43:52 15° ESE
Cosmos 1315 Rocket 3.0 18:42:56 10° SSE 18:46:39 43° E 18:48:06 29° NE
Cosmos 1470 Rocket 4.3 18:45:30 10° NNW 18:49:51 55° W 18:54:10 10° S
Cosmos 2322 Rocket 3.4 18:45:09 10° SW 18:50:22 40° WNW 18:55:35 10° N
SeaSat 1 3.1 18:47:43 10° SE 18:52:03 32° ENE 18:56:23 10° N
Cosmos 1932 4.5 18:47:18 10° NNW 18:53:47 63° ENE 19:00:09 10° SSE
CZ-3C R/B 2.0 18:52:39 10° W 18:57:53 41° SSW 19:00:00 21° SE
Cosmos 724 4.2 18:52:55 10° NNW 18:58:41 90° E 19:04:28 10° SSE
YAOGAN 6 3.3 18:56:03 10° S 18:59:27 52° W 19:02:51 10° NNW
Meteor 1-20 Rocket 4.1 18:55:39 10° N 19:01:21 66° E 19:06:57 10° SSE
ATLAS 5 CENTAUR R/B 2.5 18:58:01 10° WNW 19:02:15 58° NNE 19:08:15 28° E
Cosmos 1782 3.7 18:59:13 10° SSW 19:03:07 50° W 19:07:02 10° N
Meteor 1-25 Rocket 4.1 19:01:12 10° N 19:06:57 76° E 19:12:46 10° S
Atlas Centaur 2 2.9 19:01:27 10° WSW 19:10:00 87° SSE 19:13:24 38° ENE
Cosmos 494 Rocket 3.9 19:06:06 10° SSW 19:11:18 87° WNW 19:14:09 28° NNE
NOSS 3-4 (A) 3.2 19:08:15 10° SSW 19:14:17 82° ESE 19:16:40 39° NNE
NOSS 3-4 (C) 3.2 19:08:21 10° SSW 19:14:23 81° ESE 19:16:44 39° NNE
Cosmos 2056 Rocket 4.1 19:10:41 10° NNW 19:15:46 58° WSW 19:20:57 10° S
Meteor 1-10 Rocket 4.0 19:10:14 10° S 19:15:53 77° E 19:18:35 32° NNE
Cosmos 2333 4.1 19:13:16 10° S 19:18:46 63° ESE 19:19:32 57° ENE
ADEOS Rocket 2.7 19:18:18 53° ENE 19:18:59 57° E 19:24:20 10° S
Cosmos 2263 Rocket 3.6 19:15:07 10° N 19:17:01 21° N 19:17:01 21° N
Palapa 6 Rocket 4.2 19:18:37 10° WNW 19:21:08 27° NNW 19:21:08 27° NNW
Cosmos 1269 Rocket 4.0 19:18:42 10° SSW 19:23:59 78° WNW 19:25:48 42° N
Cosmos 2322 3.6 19:19:41 10° SSW 19:25:24 87° WNW 19:27:05 48° NNE
Cosmos 2219 Rocket 2.9 19:20:16 10° S 19:24:06 36° SE 19:24:06 36° SE
Delta 7925 Rocket 3.9 19:22:39 10° WNW 19:28:23 65° NNE 19:29:07 60° NE
Cosmos 2333 Rocket 2.6 19:31:07 10° S 19:35:20 48° SSE 19:35:20 48° SSE
BLOCK DM-SL R/B 4.3 18:41:44 10° W 19:39:06 39° SSW 19:43:37 22° SSE
Exosat Rocket 4.3 19:30:25 10° SSW 19:39:21 86° ESE 19:40:56 58° NNE
Meteor 1-27 Rocket 4.3 19:45:55 10° S 19:49:45 47° SSW 19:49:45 47° SSW
ATLAS 2AS CENTAUR R/B 4.2 19:45:03 10° SW 19:51:52 36° WNW 19:57:20 17° N
Centaur AC-64 3.8 19:50:48 10° W 19:54:06 59° NNW 19:54:06 59° NNW
H-2A R/B 4.2 19:53:56 10° WNW 20:23:57 50° N 20:23:57 50° N
CZ-3C R/B 3.6 20:23:15 10° W 21:14:44 13° E 21:36:59 10° E
